Wind_Speed
11 11 11 10 10 9 9 8 8 8 9 10 10 10 10 10 11 11 11 12 12 12 11 11 10 10 11 10 10 10 11 11 12 14 14 13 11 11 11 11 12 14 15 16 15 15 15 17 18 19 18 18 17 14 14 14 10 9 10 11 12 11 4 3 6 5 2 4 7 9 10 8 9 10 10 9 10 12 13 13 11 10 11 11 15 16 16 22
11 11 11 10 10 9 8 8 8 8 9 10 10 10 10 10 11 11 11 11 12 11 11 11 11 10 10 11 11 11 11 12 13 15 15 13 12 12 11 10 11 12 14 15 14 13 12 13 14 16 17 17 16 14 14 15 13 11 10 11 11 8 4 5 6 6 5 5 6 8 9 7 8 8 9 9 10 12 12 12 11 11 12 12 15 17 16 20
12 11 11 11 10 9 9 8 8 8 9 9 10 10 10 10 10 11 11 11 11 11 11 11 11 11 10 10 11 11 12 11 14 16 14 14 14 12 10 9 10 10 11 13 12 12 10 10 11 12 14 14 15 14 13 15 15 11 11 12 10 7 5 5 5 4 5 4 4 6 8 7 6 7 9 9 10 12 12 12 13 12 11 11 13 16 16 19
12 12 11 11 10 10 10 9 9 8 9 9 10 10 10 10 10 10 11 11 11 11 11 10 10 10 10 10 9 11 11 11 16 15 12 15 15 13 11 9 10 10 11 13 14 13 12 12 13 13 13 13 15 15 15 16 15 11 11 13 10 9 4 1 3 4 4 2 4 6 7 7 6 8 9 8 11 13 12 11 13 13 10 9 11 16 18 20
13 12 12 11 11 11 11 10 10 9 9 9 10 10 10 10 10 10 11 11 10 10 11 9 9 9 10 10 8 10 8 8 16 15 13 16 15 14 12 10 11 11 12 14 16 17 15 15 15 16 16 15 15 16 17 17 14 12 13 13 10 8 5 2 2 1 3 1 6 7 6 6 7 9 9 9 12 13 14 13 14 14 11 8 9 14 19 21
13 12 12 12 11 11 12 11 11 10 10 10 10 10 10 10 11 11 10 11 10 10 10 9 9 8 9 9 8 9 8 10 14 12 14 17 15 14 14 13 13 13 14 15 17 19 18 17 17 17 17 17 16 16 17 17 15 15 14 12 11 9 7 3 3 3 2 1 4 6 6 6 7 9 9 10 10 11 13 14 14 15 13 10 8 12 18 21
13 12 12 12 12 12 12 12 12 12 12 11 11 11 11 11 11 11 10 10 10 10 9 9 9 8 8 7 9 8 11 17 16 10 12 15 15 14 15 16 15 14 14 14 17 19 19 19 18 16 16 16 16 16 16 15 16 19 15 11 10 9 9 6 5 6 2 2 1 3 6 8 8 7 8 10 8 7 10 14 16 16 13 11 9 10 17 21
13 13 13 13 13 13 13 13 13 13 13 13 13 12 11 11 11 11 11 10 10 10 9 8 8 8 7 7 8 7 12 18 16 14 13 12 14 14 15 17 16 15 14 14 15 18 19 20 18 15 16 15 14 15 15 14 16 21 20 14 10 9 9 9 8 8 6 5 3 4 6 8 9 8 8 8 5 7 11 15 17 14 11 12 10 11 16 21
14 14 13 14 14 14 14 14 14 14 14 14 14 14 13 12 11 11 11 11 11 10 9 9 8 7 7 6 6 6 13 16 14 17 16 13 14 13 15 17 17 17 15 15 15 18 20 20 18 16 15 13 13 15 15 16 16 18 20 17 15 13 10 10 11 10 10 7 6 6 7 8 9 8 7 8 8 9 12 15 15 11 12 14 13 12 15 20
15 15 14 14 14 14 14 14 14 14 14 14 15 14 14 13 12 12 12 11 11 10 10 9 8 7 7 7 4 5 13 14 14 17 16 16 15 13 14 16 18 18 16 16 16 19 20 18 17 16 14 12 13 15 16 18 15 11 13 16 17 17 14 12 12 11 11 10 9 8 8 9 10 9 7 9 13 11 11 14 13 12 13 14 14 14 17 21
17 16 15 15 14 14 14 14 14 15 15 15 15 15 14 14 13 13 12 12 11 11 10 9 9 8 7 7 5 8 13 13 14 16 16 18 18 16 15 15 18 19 18 17 17 18 18 17 15 15 15 14 13 14 16 19 18 13 11 14 16 18 18 16 14 13 13 13 12 10 9 9 11 13 12 11 13 12 11 14 13 12 14 14 14 14 17 23
17 16 16 15 15 14 14 14 14 15 15 15 15 16 15 14 14 13 13 12 12 11 10 9 9 9 8 9 9 11 12 12 14 14 16 18 19 19 17 16 16 18 20 18 16 18 19 17 16 16 14 12 11 11 15 18 18 18 16 15 15 16 20 20 19 17 16 15 13 12 12 12 12 14 14 11 13 15 14 14 13 14 15 14 15 15 16 21
18 17 16 16 15 15 15 14 14 15 15 15 16 16 15 15 14 14 14 13 12 12 11 9 8 9 9 10 10 10 11 12 12 13 15 17 18 20 19 18 16 17 20 19 17 17 21 19 17 19 15 11 10 9 13 14 15 18 18 18 16 17 21 21 20 20 19 18 14 13 15 15 12 14 14 12 15 18 17 16 15 16 16 16 16 16 17 21
19 18 17 17 16 15 15 15 15 15 16 16 17 17 16 15 14 14 13 13 12 12 10 9 8 8 8 10 10 10 10 10 11 12 14 16 18 20 20 20 18 17 19 20 20 19 22 21 18 19 19 16 12 10 13 13 13 17 18 19 18 19 20 19 20 21 21 20 16 15 16 16 14 14 17 16 16 18 18 18 18 17 18 17 18 17 18 22
19 18 18 17 16 16 15 15 15 15 16 17 17 17 16 16 15 14 13 12 12 10 10 8 7 7 6 8 10 9 9 7 8 10 12 15 16 18 20 21 20 19 19 19 21 22 23 22 20 20 20 20 17 12 12 12 15 15 17 20 20 21 19 17 20 22 22 20 19 19 17 17 17 15 17 18 18 19 18 19 20 19 19 18 19 17 17 19
19 19 18 18 17 16 16 16 16 16 16 16 16 16 16 15 14 13 12 11 10 8 8 6 5 4 3 4 9 7 7 6 6 8 10 13 14 17 20 21 21 21 21 19 19 22 24 24 23 21 18 18 20 16 12 14 17 17 19 20 19 22 21 17 19 22 22 20 20 22 18 15 14 15 19 21 20 20 18 19 20 20 21 20 19 18 16 16
20 19 19 18 17 16 15 15 15 15 15 15 14 14 14 13 12 12 11 9 7 6 6 4 3 2 1 6 7 6 7 7 7 6 7 10 13 16 19 20 20 20 20 21 21 21 23 25 24 21 19 19 19 17 15 17 18 18 20 21 19 21 21 19 17 20 22 22 22 23 20 16 12 13 18 21 22 22 21 21 22 22 22 21 18 17 16 16
20 20 20 19 17 16 15 15 15 14 13 13 12 12 11 10 10 10 8 7 4 4 5 3 1 2 4 7 6 6 9 8 8 7 6 8 11 14 16 18 19 18 18 20 22 21 21 23 22 19 20 22 21 22 23 21 18 17 18 20 21 20 21 22 19 18 21 24 24 23 22 19 15 15 19 22 22 22 23 23 24 23 22 20 18 17 16 16
21 21 20 19 18 16 15 15 14 13 11 10 10 9 9 8 9 9 6 4 3 2 2 3 2 3 8 11 10 9 8 7 6 5 4 6 8 11 14 16 18 16 16 18 21 22 20 20 21 22 24 26 27 27 26 20 14 13 16 19 21 21 21 22 21 18 19 23 26 24 22 20 20 19 20 23 23 22 23 24 24 23 22 22 20 18 16 16
20 21 21 19 18 17 15 15 14 12 10 8 8 7 7 8 7 5 6 5 5 4 5 8 8 9 12 15 14 9 7 5 3 3 4 5 5 6 10 13 14 14 15 16 18 20 21 22 26 28 28 26 26 25 23 20 14 12 14 16 19 21 21 20 21 21 18 20 25 26 24 21 20 21 20 19 21 23 24 25 25 23 22 22 21 20 18 16
20 21 21 19 17 16 14 14 14 11 9 7 7 5 6 7 2 5 9 8 8 6 7 9 9 10 12 14 12 8 5 2 1 3 3 3 1 5 9 11 13 15 17 16 16 18 22 26 28 29 26 22 22 23 22 21 18 15 14 15 16 19 21 19 19 22 21 18 21 24 25 25 22 23 23 22 23 23 24 26 25 24 25 23 20 20 19 17
21 21 21 19 16 15 13 13 13 11 10 8 7 7 7 8 5 7 8 7 10 9 7 8 8 10 11 10 9 7 2 1 2 6 2 2 1 6 10 11 14 16 16 18 17 18 24 29 28 24 23 21 19 20 22 22 21 18 16 16 16 15 17 17 16 19 22 20 20 21 24 26 25 24 25 24 23 23 25 26 24 23 25 24 21 21 20 19
22 21 20 18 16 14 12 12 12 10 10 8 8 8 8 9 8 9 9 6 9 12 10 8 7 9 9 7 8 6 2 3 5 8 3 5 3 9 11 11 15 15 16 21 21 21 24 25 25 23 21 22 21 19 19 21 22 21 19 18 18 16 15 17 16 18 21 20 18 19 22 25 24 24 25 24 24 24 26 25 23 24 25 23 21 21 22 22
22 20 17 16 14 13 11 11 11 10 9 8 8 9 9 10 10 9 10 7 6 13 13 8 8 8 8 7 6 5 2 5 8 7 5 7 5 11 11 10 15 16 17 21 22 23 22 17 18 23 22 21 22 21 19 20 22 23 23 20 19 17 16 17 16 16 21 23 19 18 21 24 25 24 26 27 25 24 25 23 23 24 26 25 23 22 23 23
21 18 14 13 12 12 11 10 10 9 9 9 9 10 10 10 10 9 9 7 5 11 11 7 6 7 6 5 5 5 3 6 8 10 9 6 7 10 9 10 14 16 17 19 22 24 23 17 14 20 24 23 22 22 22 21 20 21 23 24 21 18 16 17 16 13 17 22 22 21 19 20 24 26 26 27 27 27 26 23 23 25 28 28 25 24 24 23
18 15 12 11 11 11 11 9 9 8 8 9 9 10 10 9 9 7 6 6 8 11 6 3 3 4 5 3 4 2 1 4 8 9 9 7 7 9 8 10 12 15 15 16 20 23 23 20 16 17 21 23 23 24 23 21 21 20 18 20 22 21 19 17 16 16 17 17 19 23 22 19 22 26 27 26 27 28 28 25 25 26 28 28 26 26 26 25
16 14 11 10 9 9 10 10 10 8 6 9 10 9 9 7 7 5 4 7 9 10 6 5 4 4 4 4 3 1 1 7 6 7 8 7 6 7 7 8 9 13 13 13 17 20 20 21 20 18 19 22 24 24 22 21 22 21 15 13 16 20 22 21 18 18 19 18 18 22 25 23 24 25 24 26 27 27 29 28 27 27 27 28 27 27 27 26
16 14 11 9 8 8 9 9 10 9 8 9 9 8 7 5 3 2 2 6 4 7 7 7 7 7 6 7 5 2 7 11 4 9 13 8 6 6 5 7 9 10 11 13 17 15 15 21 24 21 19 23 25 23 21 21 22 21 16 13 13 14 18 22 23 21 19 19 21 23 23 21 22 25 24 25 29 30 30 31 30 29 27 27 29 28 27 25
16 15 12 10 9 8 9 9 10 11 9 8 7 7 5 3 2 0 5 7 2 4 6 4 6 7 4 6 7 4 6 7 7 11 13 7 8 9 8 10 11 10 11 15 18 15 13 16 21 24 23 22 23 21 20 22 23 21 17 15 13 11 13 17 21 24 21 20 21 23 24 19 17 22 25 24 28 30 31 31 31 31 29 28 29 31 28 25
16 15 13 11 10 9 9 10 11 11 10 8 6 5 3 1 0 5 8 4 3 5 6 3 4 4 2 2 6 5 3 4 6 10 8 6 9 9 10 12 11 11 13 14 18 20 17 14 15 23 25 22 20 20 20 21 21 19 19 19 16 14 14 15 18 23 19 18 22 24 26 23 15 18 25 26 26 26 28 30 30 31 32 30 29 31 30 26
15 14 13 12 10 9 9 10 12 12 9 7 5 3 2 1 4 9 7 3 3 4 4 2 2 2 2 2 5 4 2 4 4 4 4 5 7 5 6 9 9 11 14 16 19 20 20 20 17 19 22 21 20 20 21 21 19 18 18 19 18 16 16 15 18 20 14 13 21 24 26 26 20 18 22 24 26 25 24 28 29 30 32 31 32 35 33 28
16 15 14 13 11 9 9 9 12 12 9 6 4 2 2 3 9 10 4 3 4 2 4 2 1 1 1 3 5 4 2 4 4 2 4 5 6 6 6 5 5 9 12 14 16 18 21 23 21 19 18 21 21 21 22 22 22 22 20 20 17 14 13 13 13 15 14 15 20 21 23 26 26 25 23 20 23 26 25 25 27 29 31 31 34 37 32 27
17 16 14 13 11 10 9 8 10 11 9 6 3 2 2 7 9 6 2 2 2 3 5 5 0 1 3 3 5 4 4 6 4 3 4 5 6 7 7 7 7 8 10 10 10 13 17 19 22 22 19 20 23 22 23 24 24 25 24 23 19 12 9 10 10 10 14 18 21 22 21 23 25 28 27 24 21 20 24 26 26 26 28 30 34 35 31 28
18 16 14 13 12 10 9 7 8 9 8 5 2 1 6 10 8 5 3 1 2 1 4 5 5 5 5 4 4 3 4 5 4 3 4 6 7 8 6 5 8 10 10 12 12 12 13 13 17 23 22 20 24 26 24 22 24 26 25 24 23 19 13 9 9 10 12 15 20 24 21 20 22 22 23 28 27 21 19 22 26 27 26 28 31 32 30 30
17 15 13 12 10 8 7 6 5 6 5 2 2 7 11 10 7 5 1 3 3 2 4 6 7 7 7 5 2 3 5 3 3 3 5 6 6 7 6 1 3 5 6 10 11 11 15 14 8 14 18 17 22 27 25 23 24 24 25 26 28 26 20 16 14 15 17 14 15 21 22 21 21 18 17 21 27 29 23 17 20 25 26 27 29 31 30 31
17 15 12 10 9 8 7 5 4 3 3 2 6 11 8 4 3 4 0 2 2 2 4 7 6 6 8 6 2 0 3 4 5 4 5 7 4 4 5 4 5 5 6 8 10 9 14 17 11 8 12 14 16 21 24 26 25 21 25 29 28 25 24 22 19 19 20 15 12 18 21 21 19 18 18 17 21 30 31 24 20 21 24 26 28 30 31 31
16 14 11 9 9 8 7 6 4 2 2 4 8 10 3 3 4 4 3 4 4 4 7 8 5 5 5 4 3 2 1 4 4 3 4 5 6 5 2 6 10 9 8 9 10 8 10 15 13 9 10 13 14 17 22 26 27 26 25 25 24 24 25 24 18 14 15 12 12 19 21 20 18 15 17 19 20 25 29 31 27 23 24 26 26 28 29 30
14 12 8 9 11 9 8 6 1 3 4 4 10 10 4 4 4 5 6 5 4 4 6 7 4 2 5 5 3 1 3 4 2 2 5 4 5 7 3 4 7 7 10 11 10 8 9 15 16 12 12 13 14 18 21 24 29 33 29 21 21 24 25 25 18 12 12 9 10 17 20 19 20 17 16 20 24 25 26 30 32 29 27 28 27 27 28 29
13 10 5 9 14 10 6 2 4 6 2 5 8 6 5 3 5 4 4 3 3 3 4 5 4 2 4 5 5 3 3 4 4 4 5 4 4 6 6 7 6 6 8 9 10 10 9 13 18 15 15 14 15 20 23 23 25 31 33 29 26 25 24 26 23 17 14 10 9 14 16 17 19 18 16 17 21 25 26 27 30 32 31 32 31 29 28 29
11 9 4 12 15 9 2 4 6 4 3 7 3 1 2 0 4 4 1 1 2 3 3 3 3 3 3 4 5 4 2 5 6 6 5 4 5 5 5 7 8 7 9 8 10 12 10 13 18 17 14 15 18 22 24 24 24 28 33 33 28 25 25 26 26 26 20 11 9 10 11 15 20 21 19 15 15 19 24 25 26 29 30 31 33 32 31 31
10 7 9 14 13 6 5 9 5 2 4 5 2 2 3 4 2 5 3 1 1 2 3 3 3 5 5 5 4 5 5 7 9 8 8 8 7 8 7 6 7 8 10 9 9 10 12 14 18 19 17 18 20 20 22 25 25 27 32 34 30 27 27 22 20 27 27 20 14 11 10 13 13 16 21 19 16 15 19 23 23 24 26 28 30 31 32 33
8 7 11 12 7 4 11 7 3 1 1 3 3 1 3 5 1 3 3 2 0 1 3 3 4 5 6 7 6 7 9 11 11 11 11 10 7 8 7 4 9 11 9 10 10 11 13 14 16 19 19 20 20 19 23 27 26 27 28 31 32 31 32 25 18 23 28 24 22 17 15 12 5 8 14 16 17 15 15 19 20 19 22 24 25 28 30 33
7 7 8 6 5 13 11 3 0 3 1 5 4 1 2 2 2 1 2 3 1 2 3 3 5 6 4 5 6 8 10 11 12 12 13 12 10 10 8 7 12 12 8 9 10 11 15 16 15 18 19 21 23 20 21 24 25 28 28 27 30 32 36 31 24 25 27 25 25 18 15 15 9 12 11 11 12 14 13 15 16 15 17 20 23 25 28 31
8 9 7 3 9 14 8 3 3 3 2 3 2 0 3 3 1 1 2 3 1 2 5 5 5 6 5 5 7 8 9 10 11 11 11 12 13 15 14 11 13 11 7 9 10 7 11 14 16 17 13 15 20 20 22 25 26 29 30 28 29 30 34 35 31 28 26 25 23 16 16 23 16 12 12 12 10 8 10 12 13 13 14 15 19 24 26 29
9 11 9 7 8 12 9 8 6 2 3 5 4 2 1 2 1 2 1 2 2 2 4 5 5 6 7 8 9 9 9 10 11 11 11 12 13 14 12 9 12 11 9 14 15 10 10 12 15 17 13 11 12 11 12 16 19 24 29 31 32 31 32 36 36 31 26 23 23 20 19 27 26 15 12 14 12 10 10 10 10 11 13 12 14 21 25 27
6 7 6 5 7 10 9 9 7 3 2 2 2 3 3 3 4 2 2 1 4 3 3 5 5 6 8 8 9 11 10 11 12 13 13 14 14 13 11 10 12 11 12 19 21 15 12 15 17 20 20 21 18 10 7 9 11 15 21 25 30 32 31 34 38 37 30 24 24 26 20 18 22 21 18 16 17 17 15 12 9 10 12 11 11 19 25 24
5 5 3 2 4 8 7 8 8 5 2 1 0 2 2 2 3 4 1 1 4 3 4 7 5 5 7 7 9 11 10 11 12 14 15 15 15 14 14 14 14 14 17 21 19 14 14 18 20 21 25 27 27 24 20 19 18 18 20 22 22 22 23 28 35 38 32 24 24 27 23 17 16 13 14 15 13 11 11 11 9 8 10 12 12 15 20 22
5 5 4 3 3 4 4 5 8 6 5 3 2 2 2 2 3 3 2 3 4 3 4 6 4 5 7 8 9 10 9 9 11 13 14 15 15 14 14 15 15 16 17 18 16 15 17 21 20 22 25 26 27 28 26 24 24 23 23 24 23 21 21 25 28 34 31 25 24 26 25 24 18 7 7 12 13 11 9 10 9 8 12 17 16 12 12 16
8 7 6 4 3 3 3 4 6 5 4 5 5 3 2 2 3 3 3 4 4 3 3 4 5 7 8 8 9 9 8 9 11 11 12 13 14 14 14 15 16 16 15 16 17 17 19 23 21 21 25 26 24 25 25 25 27 27 26 26 25 24 23 21 21 28 32 30 28 27 26 26 22 11 6 11 14 11 6 6 8 12 15 15 14 15 16 18
11 10 8 6 5 4 4 4 5 5 5 5 4 3 2 1 3 4 4 4 4 4 4 6 8 9 9 8 9 10 10 11 12 13 13 14 14 15 15 15 15 15 14 15 15 15 18 21 19 18 23 26 24 25 25 24 27 29 29 28 27 26 25 23 20 22 28 32 31 29 29 26 22 16 13 12 12 8 4 3 8 16 16 10 9 14 16 16
13 13 11 9 6 5 5 4 4 4 4 3 2 3 3 3 4 5 4 4 3 3 6 7 8 9 8 8 9 10 11 12 14 15 15 17 17 17 17 16 15 15 14 13 12 14 16 20 18 17 21 23 22 23 24 23 26 30 31 30 28 27 26 26 27 24 25 29 32 34 34 29 25 23 19 14 10 7 6 8 12 18 16 9 8 11 10 9
16 14 12 10 7 5 5 4 4 3 2 3 3 3 4 4 5 6 4 3 3 4 6 8 8 8 8 8 9 10 12 14 16 17 18 20 21 21 22 21 19 19 18 15 14 15 16 18 18 18 20 22 20 21 22 21 21 25 31 31 29 29 29 28 30 29 27 27 31 36 35 29 28 30 27 20 16 12 9 12 17 21 18 13 12 13 13 11
Wind_Direction
335 331 326 325 325 326 325 326 324 320 318 315 315 314 314 314 311 310 306 302 298 294 292 288 281 268 259 255 250 242 236 233 231 232 231 236 238 236 237 233 231 227 218 212 211 211 213 216 219 222 221 223 225 220 232 237 228 233 260 271 283 296 304 37 37 28 34 126 148 155 160 160 152 152 157 156 141 149 148 140 160 151 137 165 164 154 158 166
334 330 326 323 322 322 321 321 319 317 314 313 314 313 314 311 308 306 303 301 298 295 293 290 287 277 265 255 249 246 241 236 236 234 231 235 236 238 241 238 236 230 225 221 217 213 214 219 222 225 226 227 229 227 233 244 240 229 248 265 277 299 347 23 28 18 20 96 131 163 162 147 163 160 143 149 147 149 148 145 155 150 151 167 161 156 159 168
331 328 325 321 320 319 319 321 320 318 315 316 315 315 315 311 308 304 300 300 298 297 293 289 288 282 274 260 250 247 244 242 243 236 229 233 234 234 237 236 235 230 224 222 218 212 206 209 213 219 226 228 231 233 231 242 247 238 245 258 281 322 355 14 24 31 31 65 112 162 164 157 177 164 152 155 148 152 158 154 153 157 169 175 169 169 166 169
332 330 325 321 322 320 321 323 323 322 319 319 318 319 319 315 311 303 301 300 300 299 293 290 285 281 279 268 255 246 245 251 250 238 226 231 231 229 230 229 229 224 216 211 208 205 199 201 201 199 209 217 227 231 227 235 243 245 246 252 290 333 320 327 27 47 53 66 136 165 171 172 182 171 173 166 152 164 177 170 162 170 184 184 177 175 174 172
331 331 327 323 321 320 320 322 323 322 321 321 319 320 323 321 316 310 307 303 302 298 293 292 286 282 276 270 262 248 236 246 251 239 227 230 228 226 224 224 224 217 210 206 202 202 199 202 202 194 198 208 223 229 228 233 237 244 249 251 275 313 292 261 293 338 56 70 162 165 167 166 186 179 180 182 171 178 183 178 173 178 187 186 182 177 177 174
326 328 329 325 322 320 319 319 319 319 319 320 319 320 323 323 320 317 313 308 305 298 294 293 289 284 275 269 262 248 213 224 247 238 228 229 226 224 220 219 220 214 210 206 202 203 199 201 205 200 201 208 219 228 233 235 234 242 252 255 262 271 274 288 266 246 77 73 160 162 172 175 199 190 190 195 188 189 180 172 172 180 187 187 185 177 175 174
320 322 325 324 324 322 319 317 316 315 315 315 316 317 319 320 323 323 320 315 308 302 296 290 291 287 283 272 259 248 219 230 245 238 230 230 226 223 218 218 218 214 212 207 203 206 202 202 207 205 207 214 220 228 234 237 236 241 245 251 259 260 261 263 251 252 226 192 188 192 194 191 197 193 207 209 193 175 149 149 167 181 186 184 185 181 176 174
318 318 319 320 321 321 319 317 315 314 312 312 312 312 315 316 320 324 325 321 314 308 297 286 291 291 292 281 264 258 236 239 246 240 234 230 227 223 218 217 217 215 212 209 205 207 206 205 208 205 211 221 225 230 232 235 239 241 240 242 253 257 256 254 243 249 248 227 238 230 200 197 198 194 209 208 179 144 137 155 176 185 182 179 183 184 176 171
318 317 316 316 317 316 315 314 313 313 312 312 311 310 312 313 316 321 323 325 323 314 297 286 289 293 298 286 279 268 248 248 249 242 235 228 226 222 218 216 215 214 208 204 201 203 205 206 209 202 209 228 233 235 233 231 240 247 243 240 249 255 255 255 246 244 243 231 237 228 209 212 205 198 203 199 189 165 157 172 183 185 179 180 181 181 175 169
321 319 318 316 315 314 312 312 312 311 312 312 311 310 311 313 315 315 318 324 326 320 303 290 289 294 299 290 292 263 253 254 251 244 236 226 223 218 217 216 214 211 206 201 196 200 201 204 210 206 215 237 238 238 233 227 235 248 246 243 247 248 248 250 245 242 237 231 231 224 222 222 207 202 204 202 201 186 177 182 185 187 180 182 181 178 176 170
322 321 320 317 317 314 312 314 312 312 312 311 311 311 312 314 314 313 316 320 324 324 311 298 292 291 296 288 268 255 257 257 251 246 238 228 220 218 217 216 217 210 204 200 197 198 196 199 208 210 224 238 237 240 238 232 235 240 249 254 249 244 243 243 239 236 233 232 231 226 231 229 217 214 208 205 198 181 184 190 186 184 179 182 183 180 177 170
321 322 321 319 318 315 314 315 313 312 310 311 312 311 314 315 315 314 315 317 320 323 318 308 296 293 298 284 263 260 265 261 253 246 239 231 221 220 218 217 218 212 205 197 196 198 192 195 206 208 218 234 231 241 245 237 236 240 246 254 254 247 242 240 237 234 231 233 230 224 230 228 224 222 207 200 198 186 186 190 186 183 181 184 184 182 179 172
322 323 321 319 318 315 315 314 313 312 310 312 312 311 314 315 315 315 316 318 318 320 321 313 302 298 295 282 272 269 269 264 256 247 240 234 224 219 219 218 216 214 208 195 193 201 194 194 207 209 214 228 224 238 245 233 232 237 240 246 251 248 243 238 234 231 230 231 222 217 229 225 220 226 214 195 197 197 190 186 187 186 184 186 187 186 182 178
321 322 320 318 317 314 313 312 312 312 312 313 312 312 313 313 315 314 315 317 317 320 320 318 309 297 289 281 281 277 271 265 254 247 241 235 227 220 218 218 217 214 212 201 195 200 196 194 205 213 219 223 222 252 255 236 233 234 236 241 241 243 243 235 228 225 225 226 217 214 228 228 221 223 218 206 200 201 195 188 187 188 186 186 187 189 188 187
320 321 319 316 314 313 312 312 312 313 312 312 311 310 310 312 313 314 317 316 316 318 317 320 310 311 320 289 284 285 278 271 253 245 240 236 230 223 218 218 220 214 213 212 206 201 196 195 204 212 219 221 223 251 259 236 231 228 229 233 230 236 242 235 226 220 219 220 211 211 225 232 224 212 210 213 208 202 199 192 187 186 187 185 184 189 192 193
319 321 318 314 312 312 312 313 314 314 312 310 308 306 306 308 310 313 315 313 314 316 317 321 311 339 45 278 286 294 287 287 270 249 240 236 229 224 219 215 220 218 213 214 216 209 199 198 205 209 214 219 223 234 244 234 227 222 226 229 226 227 233 237 226 214 214 215 208 212 223 228 222 213 213 216 211 203 201 197 192 187 185 186 185 189 193 192
320 322 319 313 310 310 312 314 314 315 311 309 305 300 301 304 310 314 313 312 313 318 319 311 313 345 228 258 280 295 298 303 292 273 250 238 229 226 222 215 217 221 216 213 216 215 209 206 204 205 212 216 220 222 228 231 222 217 222 227 230 226 226 231 220 208 210 214 213 213 220 226 219 211 213 216 212 203 199 200 198 193 189 187 184 186 190 190
320 322 320 314 309 309 312 314 316 316 311 306 299 295 298 303 313 315 313 312 310 341 333 294 25 11 266 256 259 282 297 298 294 289 262 244 231 226 223 217 217 218 217 216 216 215 214 211 205 208 215 214 214 212 216 222 218 218 218 222 230 228 225 226 220 210 206 213 218 213 218 225 210 194 199 211 214 206 204 205 200 195 191 188 184 184 188 190
320 322 320 316 309 307 312 315 320 319 312 306 299 297 300 315 329 324 316 305 294 356 329 254 216 218 235 246 263 283 287 283 289 290 274 254 233 221 217 216 218 218 216 216 217 212 209 206 205 211 214 212 212 211 215 220 224 229 226 225 229 229 228 225 224 219 206 212 220 218 221 217 207 210 211 211 212 212 213 205 196 193 191 190 187 186 188 191
321 321 319 316 308 306 310 317 323 320 315 309 301 295 301 334 354 322 308 302 279 259 239 246 243 232 230 244 266 280 269 269 275 266 271 258 230 208 213 213 211 212 206 208 216 211 205 205 209 212 213 214 215 216 221 227 237 246 241 238 232 231 233 227 225 225 214 216 222 222 225 221 216 221 222 218 217 221 217 201 198 200 195 192 188 187 191 190
320 320 317 313 306 302 306 317 324 321 319 312 307 309 309 333 344 254 291 300 281 270 253 255 245 240 241 243 256 256 249 276 283 269 256 241 204 166 205 206 194 206 204 201 212 208 205 212 217 217 216 218 221 222 226 230 237 244 244 246 241 234 234 230 225 226 222 223 229 227 226 231 227 216 221 226 221 221 215 207 210 205 195 194 188 188 192 188
317 318 315 310 304 299 302 316 323 322 322 314 312 323 316 318 304 277 300 302 282 282 272 267 254 253 251 242 244 233 230 62 277 286 247 165 121 165 211 217 195 208 208 199 205 203 210 220 221 220 219 220 223 225 226 229 234 237 237 243 244 236 235 235 229 228 225 223 231 230 227 233 230 223 227 230 226 222 213 213 217 203 195 199 192 188 192 192
315 316 313 307 302 296 298 312 321 321 321 321 319 323 317 313 310 302 307 311 291 288 287 276 263 261 249 242 239 207 150 145 206 275 250 136 145 181 208 226 208 212 210 205 207 205 213 225 223 219 220 221 224 225 225 227 230 232 233 236 239 236 234 236 230 228 229 227 231 233 233 236 232 228 225 227 238 225 207 214 222 206 200 203 197 192 196 196
314 316 314 306 300 295 294 305 315 319 319 324 322 317 315 309 311 309 306 318 280 275 291 283 261 261 240 235 228 186 193 193 190 258 238 140 169 205 209 221 217 220 218 212 215 218 221 229 226 220 219 221 223 224 222 224 229 230 231 233 236 236 237 239 236 233 231 231 233 237 243 240 231 229 223 224 235 221 207 221 225 208 203 207 204 200 201 200
317 320 317 306 301 293 292 300 310 321 322 323 321 313 314 312 314 314 311 320 228 240 281 294 277 274 252 241 218 197 247 234 221 250 244 196 196 208 215 223 220 223 225 219 220 227 229 228 227 219 217 220 222 223 222 222 229 231 230 232 236 241 243 242 244 244 235 231 229 229 242 243 230 229 227 222 223 221 220 225 217 207 208 214 212 203 203 202
323 327 321 309 303 294 293 299 306 326 325 317 320 315 315 318 317 320 317 296 222 213 246 291 286 274 264 242 199 171 44 238 248 251 247 243 207 192 212 226 225 225 227 226 226 231 232 227 226 220 215 219 221 224 223 219 227 233 231 231 236 242 246 245 243 241 238 238 232 223 229 243 235 227 227 223 221 222 222 219 213 209 213 220 217 206 204 202
330 332 327 314 307 296 296 302 309 323 311 302 316 316 317 323 324 342 319 268 221 193 207 238 240 232 255 248 200 56 253 229 266 280 250 234 196 189 206 218 229 230 224 228 232 231 229 225 224 220 216 220 222 224 220 214 223 233 232 233 237 237 240 242 243 243 242 248 247 230 226 238 241 232 225 222 222 222 219 216 214 211 215 222 220 214 209 205
332 332 331 323 314 303 302 304 305 306 296 298 311 310 316 327 335 25 292 266 204 163 202 242 256 250 269 278 254 245 239 228 246 281 263 240 217 216 216 229 239 238 226 227 235 232 223 224 225 221 219 223 225 223 218 216 225 233 232 236 243 240 237 237 240 245 246 249 250 237 227 233 241 236 229 224 223 222 218 216 215 214 215 216 222 223 213 206
330 329 329 325 317 307 303 300 295 295 299 306 306 303 318 348 18 289 249 263 239 185 213 253 276 265 285 298 280 271 251 229 214 252 269 269 248 228 209 228 238 242 238 230 238 241 229 228 226 224 225 226 226 224 221 223 229 233 232 237 246 247 242 236 236 242 244 246 246 237 231 236 241 233 228 225 224 223 219 217 216 215 212 210 218 224 217 210
329 327 328 326 317 309 304 297 291 292 302 311 304 301 318 30 38 247 241 226 151 190 213 241 271 274 336 278 267 298 297 253 233 248 273 271 251 238 220 228 233 245 250 241 243 242 238 241 230 226 228 227 228 227 225 226 228 230 231 235 242 244 244 242 237 238 241 243 240 236 234 239 245 232 226 226 226 225 220 217 215 212 212 210 211 219 223 219
330 326 325 324 316 311 305 295 294 297 307 313 302 309 358 40 243 251 254 216 192 206 216 269 272 261 348 205 233 320 319 274 290 264 267 257 246 251 242 241 243 247 247 242 243 241 237 239 232 229 231 227 229 230 227 227 224 223 225 228 235 235 235 238 234 231 236 241 236 233 233 238 243 233 228 227 226 226 221 218 217 211 211 209 209 220 229 225
329 325 323 320 314 310 300 291 296 300 307 309 302 350 14 273 245 241 258 246 229 188 169 171 90 144 328 220 230 312 270 254 319 268 228 235 230 222 217 236 248 241 241 237 237 235 232 235 234 232 229 223 225 227 225 223 218 218 219 220 225 226 224 226 224 223 232 238 234 230 228 234 241 237 233 230 227 225 221 220 220 214 211 209 212 225 230 221
327 324 321 316 312 309 301 295 296 298 306 306 310 31 278 266 253 241 278 246 177 126 173 199 158 306 308 258 234 284 257 249 301 284 231 222 228 229 229 252 248 240 267 275 254 236 227 226 226 229 228 219 218 220 218 215 213 214 215 214 217 219 219 220 219 223 234 236 230 227 229 233 239 239 234 231 229 225 221 222 221 216 214 210 212 224 226 214
328 325 321 317 315 312 308 302 292 289 294 297 304 248 244 251 257 264 297 74 124 154 225 241 264 275 280 256 249 271 248 256 289 276 241 225 229 221 214 268 252 236 279 289 266 249 242 230 216 217 221 215 214 219 219 216 217 217 215 217 221 224 227 228 221 220 232 239 228 220 224 232 233 235 232 228 227 224 222 221 218 215 217 212 209 217 219 208
330 326 322 320 321 324 321 306 294 283 276 275 227 232 243 253 267 278 231 103 54 323 273 270 272 266 242 213 266 274 206 215 336 302 237 224 235 219 195 342 300 242 274 280 265 256 253 254 230 211 218 218 217 220 220 223 227 221 214 219 224 224 230 243 247 241 238 243 231 216 220 229 234 235 232 227 222 219 220 219 212 212 215 213 210 210 210 205
332 329 327 333 341 347 340 318 313 285 233 182 225 236 247 266 321 8 89 171 350 329 298 284 256 237 228 197 151 140 202 245 304 305 240 219 232 229 211 260 280 259 265 278 284 275 254 252 247 225 227 228 224 220 217 222 229 224 212 218 225 223 228 241 253 255 247 244 238 226 222 222 228 231 224 218 218 216 216 217 212 210 211 211 210 207 207 207
331 330 332 353 358 350 341 329 325 311 159 161 225 243 300 322 278 309 281 255 279 291 295 286 236 216 251 236 182 130 341 287 280 275 251 224 220 214 215 277 278 268 252 257 273 285 282 270 255 233 234 234 229 228 224 223 229 230 221 217 220 221 227 236 245 250 243 242 239 234 229 217 212 216 211 206 210 212 214 216 215 212 210 208 207 207 207 207
332 335 343 6 1 348 345 338 350 101 124 191 242 251 287 317 288 278 267 264 282 286 285 275 253 238 259 258 256 334 317 290 310 297 266 244 224 218 211 278 296 289 256 245 253 268 287 279 261 244 247 248 236 232 232 229 228 232 235 227 215 215 220 225 234 239 234 237 236 233 235 228 216 211 209 208 209 211 212 213 215 215 211 207 206 206 206 206
350 4 352 344 347 342 342 11 113 100 129 251 262 244 224 281 320 304 275 273 273 275 288 284 283 259 236 260 294 319 308 288 318 317 272 248 247 248 251 259 276 302 279 253 248 260 274 272 263 255 252 251 238 228 228 230 226 228 238 242 231 224 220 218 224 233 236 240 235 229 232 232 226 219 217 214 210 210 211 210 213 216 214 212 210 210 208 207
28 48 294 304 328 324 341 70 68 59 280 269 294 62 160 222 339 328 283 169 226 264 306 317 284 254 258 296 286 261 283 305 293 285 274 264 258 258 268 266 259 273 291 275 252 257 262 261 263 263 256 247 236 226 223 227 226 221 227 235 233 229 228 224 223 225 230 240 240 234 229 229 229 222 217 215 206 205 209 210 212 215 216 218 217 216 214 209
51 52 276 290 317 324 63 44 8 303 286 285 304 326 232 201 6 353 323 171 156 258 298 309 273 272 292 308 286 260 282 295 282 271 266 259 257 254 247 258 270 277 292 283 257 254 252 250 258 259 252 243 234 229 228 228 228 225 224 228 230 226 224 226 222 218 222 230 238 243 240 237 231 214 212 218 215 207 204 206 211 214 217 220 219 218 215 211
24 346 286 288 316 70 81 49 304 241 313 238 193 241 235 213 278 353 338 338 82 268 313 321 274 279 294 288 281 283 287 283 275 271 266 258 265 267 254 268 281 281 289 272 254 257 252 245 255 256 249 247 245 242 237 228 231 242 240 233 233 228 222 225 226 217 217 225 232 239 244 246 216 182 207 217 213 208 200 200 208 214 217 218 217 216 213 211
17 351 311 302 91 95 81 55 81 46 351 205 196 234 141 117 343 12 31 360 325 265 310 323 278 272 279 279 279 282 285 281 270 263 262 258 253 252 259 296 288 279 289 269 253 262 254 241 250 259 257 257 256 255 248 236 240 256 256 244 241 234 226 227 232 227 223 222 221 223 236 234 181 146 185 205 198 201 202 200 204 210 215 216 214 213 212 210
32 36 7 355 103 97 81 80 84 33 31 121 100 229 137 100 54 106 16 338 325 279 292 287 271 268 272 279 280 277 279 280 271 261 257 255 254 257 266 289 284 270 271 257 241 254 258 240 239 251 259 255 246 246 249 242 239 245 246 240 240 238 232 229 231 234 233 229 226 224 223 221 197 140 158 186 188 198 200 197 204 207 205 208 212 212 211 209
22 26 19 10 64 83 88 93 84 50 90 97 82 66 23 337 320 161 178 287 281 277 286 277 255 260 274 276 275 274 271 270 268 265 262 257 261 270 272 276 271 260 255 252 244 250 265 250 239 241 244 240 230 228 240 241 237 239 239 236 233 234 233 229 227 231 233 233 244 250 229 217 216 206 194 200 214 233 224 204 203 197 192 199 204 201 205 208
33 15 17 14 36 54 66 73 71 75 98 88 58 42 10 337 326 290 190 230 288 279 274 272 259 267 276 271 275 277 269 263 262 263 266 265 265 269 265 259 257 249 245 249 250 254 262 255 246 243 244 247 252 267 292 288 278 262 255 251 238 230 232 233 228 228 229 229 241 251 244 231 229 222 212 213 224 232 225 205 188 173 177 201 199 183 188 199
39 358 22 112 74 51 45 53 62 70 69 52 272 13 6 9 335 306 243 236 293 302 278 262 251 266 276 271 276 279 270 263 263 262 266 270 271 271 270 265 258 248 245 246 246 251 257 253 249 247 249 253 261 271 280 283 284 278 271 272 262 244 251 258 241 228 229 233 236 239 238 244 251 227 196 199 203 198 187 172 164 159 167 194 198 175 174 182
38 7 44 121 102 50 35 42 52 57 63 77 99 63 16 15 356 325 312 293 292 300 283 270 260 259 268 274 280 286 285 277 272 269 270 272 273 275 274 266 261 258 253 249 243 242 250 254 252 251 253 256 260 265 271 274 275 275 270 271 275 267 272 279 256 231 229 236 236 233 227 229 238 230 168 177 165 145 144 141 140 152 168 186 190 169 159 171
48 43 52 78 72 57 53 44 47 50 66 87 84 59 48 26 1 335 313 312 304 287 271 284 286 269 268 281 285 289 293 286 281 279 277 277 276 276 272 264 263 260 250 247 247 243 246 252 252 252 255 257 257 259 266 272 270 268 266 265 269 268 266 274 260 233 228 235 239 235 229 224 224 220 206 189 168 151 144 136 155 175 171 175 182 171 165 169
48 49 48 61 72 68 52 46 59 57 53 78 76 29 18 7 343 331 316 309 299 277 270 281 285 281 284 288 285 283 283 280 280 280 279 279 276 272 269 265 268 264 246 240 246 243 243 249 250 255 258 257 255 256 261 268 266 263 261 258 260 263 258 251 244 233 231 237 239 235 229 227 226 231 240 226 198 183 182 183 199 191 175 168 186 180 176 178
46 46 45 59 68 61 54 48 61 64 38 35 46 10 1 342 327 332 324 294 271 269 283 286 287 291 294 292 286 284 281 276 276 276 276 275 272 270 268 264 265 267 256 245 245 241 243 250 252 255 259 257 253 252 255 262 265 261 257 252 251 253 249 237 231 234 237 237 235 230 227 226 229 235 240 236 218 208 222 233 213 192 182 190 207 197 189 189
45 43 42 57 61 48 58 48 34 51 20 357 21 2 346 337 328 337 333 292 291 302 301 300 299 300 298 289 279 277 280 283 283 281 277 273 270 267 266 263 260 261 258 252 249 243 242 251 253 250 255 260 256 251 253 260 266 257 248 245 245 246 244 238 234 235 239 240 236 228 225 229 235 236 237 235 226 216 230 240 218 201 205 224 227 223 224 218
Height
3158 3157 3156 3155 3154 3153 3152 3152 3151 3150 3149 3148 3147 3146 3145 3145 3144 3143 3143 3142 3141 3141 3141 3140 3140 3140 3140 3140 3140 3140 3140 3141 3141 3141 3141 3141 3141 3142 3143 3144 3145 3146 3147 3148 3149 3151 3152 3153 3154 3155 3157 3158 3158 3159 3160 3160 3160 3161 3162 3162 3162 3161 3161 3160 3159 3158 3157 3157 3157 3157 3156 3155 3156 3157 3158 3159 3161 3163 3164 3165 3166 3166 3167 3167 3169 3171 3173 3175
3157 3156 3155 3154 3153 3152 3151 3151 3150 3149 3148 3147 3146 3145 3144 3144 3143 3142 3141 3141 3140 3140 3140 3139 3139 3139 3139 3139 3139 3139 3139 3140 3140 3139 3140 3140 3141 3141 3142 3143 3144 3145 3146 3148 3150 3151 3152 3153 3154 3155 3157 3158 3159 3159 3160 3160 3160 3161 3162 3163 3162 3162 3161 3160 3160 3160 3157 3157 3157 3157 3157 3156 3157 3157 3158 3161 3162 3164 3165 3166 3166 3166 3166 3167 3169 3171 3173 3175
3157 3155 3154 3153 3152 3151 3150 3150 3149 3148 3147 3146 3145 3144 3143 3142 3142 3141 3140 3140 3139 3139 3138 3138 3138 3137 3138 3138 3138 3138 3138 3139 3138 3138 3139 3139 3140 3141 3141 3142 3143 3144 3145 3147 3150 3151 3152 3153 3154 3155 3157 3158 3159 3160 3161 3161 3160 3160 3162 3162 3161 3160 3160 3160 3161 3160 3158 3158 3158 3158 3157 3157 3157 3158 3159 3161 3162 3165 3166 3166 3167 3167 3166 3167 3168 3171 3173 3175
3156 3154 3153 3152 3151 3150 3149 3149 3148 3147 3146 3145 3144 3143 3142 3141 3141 3140 3139 3138 3138 3137 3137 3137 3137 3136 3136 3136 3137 3137 3138 3139 3136 3136 3138 3138 3139 3140 3141 3141 3142 3143 3144 3146 3148 3150 3151 3152 3153 3155 3156 3159 3159 3160 3161 3160 3160 3161 3161 3162 3161 3161 3160 3160 3160 3160 3160 3159 3159 3159 3158 3157 3158 3159 3160 3160 3162 3165 3166 3166 3168 3167 3166 3167 3169 3171 3173 3175
3154 3153 3152 3151 3150 3149 3148 3147 3147 3146 3145 3144 3143 3142 3141 3140 3139 3138 3138 3137 3137 3136 3136 3136 3135 3135 3135 3135 3136 3136 3138 3138 3134 3135 3136 3136 3138 3139 3140 3141 3141 3142 3143 3145 3146 3148 3150 3152 3153 3154 3155 3158 3160 3159 3159 3159 3160 3161 3161 3162 3162 3162 3161 3159 3160 3160 3160 3160 3159 3159 3158 3158 3159 3160 3160 3160 3162 3164 3165 3167 3168 3168 3167 3168 3170 3171 3173 3175
3153 3152 3151 3150 3149 3148 3147 3146 3145 3144 3143 3143 3142 3141 3140 3139 3138 3138 3137 3136 3135 3135 3134 3134 3134 3134 3134 3134 3134 3135 3137 3136 3133 3134 3135 3135 3137 3138 3139 3139 3140 3141 3142 3143 3145 3147 3149 3151 3152 3153 3155 3157 3159 3159 3159 3159 3160 3160 3160 3161 3162 3162 3161 3160 3161 3160 3160 3161 3159 3159 3159 3159 3159 3160 3160 3160 3162 3165 3165 3166 3168 3168 3167 3169 3171 3172 3173 3175
3152 3151 3150 3149 3148 3147 3146 3145 3144 3143 3142 3141 3140 3140 3139 3138 3138 3137 3136 3135 3134 3134 3133 3133 3133 3133 3133 3133 3133 3134 3135 3132 3131 3134 3134 3134 3136 3137 3138 3138 3139 3140 3141 3142 3144 3146 3148 3150 3152 3153 3155 3157 3158 3160 3160 3160 3160 3159 3159 3161 3161 3162 3161 3161 3161 3160 3160 3161 3160 3159 3159 3160 3160 3161 3161 3160 3163 3165 3164 3165 3168 3168 3168 3169 3170 3172 3174 3175
3151 3150 3149 3148 3147 3146 3144 3143 3142 3141 3140 3140 3139 3138 3138 3137 3137 3136 3135 3134 3133 3132 3132 3132 3132 3132 3132 3132 3132 3132 3132 3130 3131 3133 3133 3134 3135 3136 3137 3137 3138 3139 3140 3142 3143 3145 3148 3150 3151 3154 3156 3157 3158 3159 3160 3160 3159 3158 3158 3160 3161 3161 3161 3161 3161 3161 3160 3160 3161 3160 3160 3161 3160 3161 3162 3161 3162 3163 3165 3167 3168 3167 3167 3168 3170 3172 3174 3175
3150 3149 3148 3147 3145 3144 3143 3142 3141 3140 3139 3138 3137 3137 3136 3136 3135 3135 3134 3133 3132 3131 3131 3130 3131 3131 3131 3131 3131 3131 3129 3129 3130 3131 3132 3133 3134 3135 3135 3136 3137 3138 3140 3141 3142 3145 3147 3149 3151 3153 3156 3158 3158 3159 3159 3159 3159 3157 3157 3159 3160 3160 3161 3161 3160 3160 3160 3160 3161 3161 3161 3162 3161 3161 3162 3162 3162 3163 3166 3167 3166 3166 3167 3168 3169 3171 3173 3175
3149 3148 3146 3145 3144 3143 3141 3140 3139 3138 3137 3136 3135 3135 3135 3134 3134 3133 3132 3132 3131 3130 3129 3129 3129 3129 3130 3129 3130 3130 3128 3128 3129 3129 3130 3132 3133 3134 3134 3135 3136 3137 3138 3140 3141 3143 3146 3149 3152 3154 3155 3157 3157 3157 3157 3158 3158 3157 3157 3158 3159 3159 3160 3160 3160 3160 3160 3161 3161 3162 3162 3162 3161 3162 3163 3162 3163 3164 3165 3166 3166 3166 3167 3168 3169 3171 3172 3174
3147 3146 3145 3144 3143 3141 3140 3139 3138 3136 3136 3135 3134 3133 3133 3133 3132 3132 3131 3131 3130 3129 3129 3128 3128 3128 3128 3128 3128 3128 3127 3127 3127 3127 3128 3130 3131 3132 3133 3134 3135 3136 3137 3139 3141 3143 3146 3149 3152 3154 3155 3155 3155 3156 3156 3156 3156 3156 3157 3157 3157 3158 3158 3158 3159 3159 3160 3160 3161 3162 3163 3162 3160 3161 3162 3162 3162 3164 3165 3165 3166 3166 3166 3168 3169 3170 3172 3174
3145 3144 3143 3142 3141 3140 3139 3138 3136 3135 3134 3133 3132 3131 3131 3131 3130 3130 3129 3129 3129 3128 3127 3127 3127 3127 3126 3126 3126 3125 3125 3125 3125 3126 3126 3128 3129 3131 3132 3133 3134 3135 3136 3138 3140 3142 3144 3148 3150 3152 3154 3153 3154 3156 3155 3154 3155 3155 3156 3156 3156 3157 3156 3156 3157 3158 3159 3159 3160 3161 3162 3162 3160 3160 3161 3161 3162 3164 3165 3165 3166 3166 3167 3168 3169 3170 3171 3173
3144 3143 3142 3141 3140 3138 3137 3136 3135 3134 3132 3131 3130 3129 3129 3129 3128 3128 3128 3127 3127 3127 3126 3126 3126 3125 3125 3124 3124 3124 3124 3123 3124 3124 3125 3126 3127 3129 3130 3132 3133 3134 3135 3137 3140 3141 3142 3145 3148 3150 3152 3152 3154 3155 3151 3152 3153 3154 3155 3155 3155 3156 3154 3154 3156 3157 3158 3158 3160 3161 3160 3160 3161 3161 3161 3161 3162 3163 3164 3165 3166 3167 3167 3168 3169 3170 3171 3172
3143 3142 3141 3139 3138 3137 3136 3135 3134 3132 3131 3130 3129 3128 3127 3127 3127 3126 3126 3126 3125 3125 3125 3124 3124 3124 3124 3123 3122 3122 3122 3122 3122 3123 3123 3124 3125 3127 3128 3130 3132 3133 3135 3136 3137 3139 3141 3143 3146 3148 3150 3150 3152 3152 3149 3151 3152 3153 3154 3154 3154 3153 3151 3153 3154 3155 3156 3157 3159 3160 3159 3160 3161 3161 3161 3161 3162 3163 3164 3164 3166 3167 3167 3167 3169 3170 3171 3171
3141 3140 3139 3138 3137 3135 3134 3133 3132 3131 3130 3129 3127 3126 3126 3125 3125 3124 3124 3124 3124 3123 3123 3123 3123 3123 3123 3122 3121 3120 3121 3121 3121 3122 3122 3123 3124 3125 3127 3128 3130 3132 3133 3135 3135 3137 3138 3141 3143 3145 3147 3148 3149 3150 3150 3151 3151 3152 3152 3151 3151 3151 3150 3151 3152 3152 3154 3155 3157 3158 3158 3159 3159 3160 3161 3161 3161 3163 3164 3165 3166 3166 3166 3167 3168 3169 3170 3171
3139 3139 3137 3136 3135 3134 3133 3132 3131 3130 3128 3127 3126 3125 3124 3124 3123 3123 3123 3123 3122 3122 3122 3122 3122 3122 3123 3122 3120 3119 3120 3120 3120 3120 3121 3121 3123 3124 3125 3126 3128 3130 3132 3133 3135 3136 3137 3139 3141 3143 3145 3147 3148 3149 3150 3150 3149 3150 3149 3148 3149 3149 3149 3150 3149 3150 3152 3154 3155 3155 3156 3157 3157 3158 3159 3159 3160 3162 3163 3164 3165 3166 3166 3167 3167 3168 3169 3171
3137 3137 3135 3134 3133 3132 3131 3130 3129 3128 3127 3125 3124 3123 3123 3122 3122 3122 3121 3121 3121 3121 3120 3121 3121 3121 3122 3121 3119 3119 3119 3119 3119 3119 3120 3120 3121 3122 3123 3125 3127 3128 3130 3132 3133 3135 3136 3137 3139 3141 3143 3145 3147 3148 3149 3147 3145 3146 3147 3147 3146 3146 3148 3148 3147 3148 3150 3152 3152 3153 3154 3155 3155 3157 3157 3157 3159 3160 3159 3160 3163 3164 3165 3165 3166 3167 3168 3170
3135 3135 3133 3132 3131 3130 3129 3128 3127 3126 3125 3124 3123 3122 3121 3121 3121 3120 3120 3120 3120 3120 3120 3120 3120 3121 3121 3119 3119 3119 3118 3118 3118 3118 3119 3119 3119 3121 3122 3124 3125 3127 3129 3130 3131 3133 3135 3136 3139 3141 3141 3142 3143 3145 3143 3142 3142 3143 3144 3145 3145 3145 3145 3145 3145 3146 3147 3150 3150 3151 3152 3153 3154 3156 3156 3155 3156 3157 3157 3158 3161 3162 3163 3163 3165 3167 3168 3169
3133 3132 3131 3130 3128 3128 3127 3126 3125 3124 3123 3122 3121 3120 3120 3120 3119 3119 3119 3119 3119 3120 3120 3120 3119 3121 3120 3117 3118 3118 3118 3118 3118 3118 3118 3118 3118 3119 3121 3123 3124 3126 3128 3129 3130 3132 3134 3136 3137 3137 3137 3137 3138 3140 3140 3140 3142 3142 3142 3143 3143 3143 3142 3143 3144 3144 3146 3147 3148 3149 3150 3152 3152 3152 3153 3153 3153 3154 3155 3158 3159 3159 3161 3163 3164 3166 3167 3168
3132 3130 3129 3128 3126 3126 3125 3124 3123 3122 3121 3121 3120 3119 3119 3118 3118 3118 3118 3118 3118 3119 3119 3118 3118 3118 3118 3116 3116 3117 3117 3117 3117 3117 3117 3117 3117 3119 3120 3122 3124 3126 3127 3129 3130 3130 3133 3134 3133 3132 3133 3135 3137 3139 3140 3142 3142 3142 3142 3141 3141 3141 3140 3141 3143 3143 3144 3145 3146 3147 3148 3150 3150 3150 3150 3150 3151 3152 3154 3156 3157 3157 3159 3160 3161 3163 3165 3167
3130 3128 3127 3126 3124 3123 3123 3122 3121 3120 3120 3119 3119 3118 3118 3118 3118 3118 3117 3117 3117 3117 3117 3116 3117 3116 3116 3116 3116 3116 3116 3116 3117 3117 3116 3117 3117 3119 3120 3121 3124 3125 3126 3129 3130 3130 3131 3130 3129 3130 3133 3136 3138 3139 3140 3141 3142 3142 3142 3141 3140 3139 3139 3140 3141 3142 3142 3143 3144 3146 3147 3147 3149 3149 3148 3148 3149 3150 3151 3154 3154 3154 3155 3157 3159 3161 3163 3166
3128 3126 3125 3123 3122 3121 3121 3121 3120 3119 3118 3118 3117 3117 3117 3117 3117 3117 3116 3116 3115 3115 3115 3115 3115 3115 3114 3114 3115 3115 3116 3117 3118 3116 3116 3116 3118 3120 3121 3121 3123 3125 3126 3129 3129 3129 3128 3126 3127 3131 3133 3135 3137 3138 3139 3140 3141 3141 3141 3141 3139 3138 3139 3139 3140 3141 3141 3141 3143 3144 3145 3145 3146 3147 3146 3145 3146 3148 3150 3152 3152 3151 3152 3154 3156 3159 3162 3165
3126 3124 3123 3121 3120 3119 3119 3119 3118 3118 3117 3116 3116 3116 3115 3115 3115 3115 3115 3115 3114 3113 3113 3113 3113 3113 3113 3113 3113 3114 3115 3117 3118 3117 3115 3116 3118 3120 3121 3121 3123 3124 3125 3126 3126 3126 3125 3124 3127 3131 3133 3134 3135 3136 3137 3138 3139 3139 3139 3140 3138 3138 3138 3137 3138 3140 3139 3140 3141 3142 3142 3142 3143 3145 3144 3143 3144 3146 3149 3151 3151 3150 3151 3151 3154 3158 3160 3163
3123 3122 3120 3119 3118 3117 3118 3118 3117 3116 3116 3115 3115 3114 3114 3114 3113 3113 3113 3113 3113 3111 3110 3111 3111 3111 3112 3112 3112 3113 3114 3115 3116 3116 3114 3115 3118 3118 3119 3121 3122 3123 3123 3124 3125 3124 3123 3125 3127 3129 3131 3132 3133 3134 3136 3136 3136 3137 3137 3137 3137 3138 3138 3137 3137 3138 3138 3138 3139 3141 3140 3138 3139 3141 3142 3143 3143 3144 3146 3148 3149 3149 3150 3151 3152 3156 3159 3162
3121 3119 3118 3117 3116 3116 3116 3116 3116 3115 3115 3114 3114 3113 3113 3112 3112 3112 3111 3111 3112 3110 3109 3109 3110 3110 3110 3111 3112 3112 3113 3113 3114 3113 3113 3114 3116 3116 3118 3119 3120 3121 3122 3122 3123 3123 3122 3125 3126 3127 3128 3130 3131 3132 3133 3134 3135 3134 3135 3135 3137 3137 3137 3137 3137 3137 3137 3135 3137 3140 3137 3133 3135 3137 3138 3141 3142 3143 3145 3145 3146 3146 3148 3150 3152 3154 3158 3160
3119 3118 3116 3116 3115 3114 3114 3114 3114 3114 3114 3113 3113 3112 3112 3111 3111 3110 3110 3110 3109 3108 3108 3109 3109 3109 3109 3110 3111 3112 3113 3113 3112 3111 3112 3112 3113 3114 3116 3118 3118 3119 3120 3122 3122 3120 3121 3123 3125 3125 3126 3128 3129 3130 3131 3132 3133 3132 3132 3134 3135 3136 3137 3137 3137 3137 3135 3133 3134 3136 3134 3130 3131 3132 3134 3137 3139 3141 3143 3143 3145 3144 3145 3148 3151 3153 3155 3157
3117 3116 3115 3114 3113 3113 3112 3112 3113 3113 3113 3112 3111 3111 3111 3110 3110 3109 3110 3108 3105 3106 3109 3108 3109 3109 3108 3109 3110 3111 3113 3112 3111 3111 3111 3111 3112 3113 3114 3116 3118 3117 3118 3120 3118 3117 3118 3121 3122 3123 3124 3126 3126 3126 3128 3131 3131 3130 3132 3134 3134 3135 3136 3136 3136 3135 3134 3133 3132 3132 3132 3130 3127 3128 3131 3134 3135 3137 3139 3141 3143 3144 3144 3145 3149 3151 3153 3156
3116 3115 3114 3113 3112 3111 3111 3111 3111 3111 3112 3111 3110 3110 3110 3110 3109 3109 3110 3105 3101 3105 3108 3107 3107 3107 3107 3108 3108 3110 3111 3111 3112 3111 3109 3110 3111 3112 3114 3115 3117 3117 3117 3118 3116 3115 3117 3118 3119 3121 3122 3123 3123 3124 3127 3129 3129 3129 3132 3133 3133 3134 3134 3135 3136 3134 3134 3133 3129 3127 3129 3127 3123 3126 3128 3130 3131 3133 3135 3137 3140 3143 3144 3144 3145 3149 3152 3155
3115 3114 3113 3112 3111 3111 3110 3109 3109 3109 3109 3110 3110 3109 3109 3109 3108 3109 3110 3105 3101 3105 3106 3106 3106 3106 3107 3108 3108 3109 3109 3110 3112 3110 3108 3110 3111 3111 3113 3113 3114 3115 3115 3115 3115 3114 3115 3116 3118 3119 3119 3120 3121 3123 3126 3127 3127 3129 3131 3131 3132 3132 3132 3134 3133 3132 3133 3130 3125 3125 3127 3123 3119 3122 3125 3125 3127 3128 3131 3134 3136 3140 3143 3144 3143 3146 3150 3153
3114 3113 3112 3111 3110 3109 3108 3108 3107 3107 3108 3108 3108 3108 3108 3108 3108 3108 3106 3103 3102 3103 3104 3106 3106 3106 3107 3109 3109 3108 3109 3109 3109 3109 3109 3111 3110 3110 3111 3111 3112 3113 3113 3113 3113 3113 3113 3114 3115 3116 3116 3118 3120 3122 3124 3125 3126 3128 3129 3130 3131 3131 3131 3132 3131 3132 3130 3123 3121 3124 3125 3122 3117 3118 3121 3122 3123 3126 3128 3131 3134 3137 3141 3143 3142 3142 3146 3150
3113 3111 3110 3109 3109 3108 3107 3106 3105 3105 3106 3107 3107 3107 3107 3107 3108 3106 3101 3100 3102 3103 3104 3105 3106 3106 3107 3109 3109 3108 3108 3109 3108 3109 3110 3110 3110 3110 3111 3111 3111 3111 3112 3111 3111 3111 3111 3111 3112 3113 3114 3116 3119 3120 3121 3123 3125 3126 3127 3128 3129 3129 3129 3129 3128 3129 3124 3117 3118 3122 3124 3122 3115 3114 3119 3120 3122 3125 3126 3128 3131 3134 3137 3141 3141 3140 3143 3147
3111 3110 3109 3108 3107 3106 3106 3105 3104 3104 3104 3105 3106 3105 3106 3107 3106 3103 3099 3100 3102 3103 3104 3105 3105 3106 3107 3108 3108 3108 3108 3108 3107 3108 3110 3110 3110 3110 3110 3110 3110 3109 3108 3107 3107 3107 3108 3108 3109 3111 3112 3114 3116 3117 3119 3120 3122 3123 3125 3126 3126 3124 3124 3124 3122 3121 3117 3113 3116 3120 3121 3118 3112 3113 3117 3118 3120 3122 3124 3126 3129 3131 3134 3138 3138 3137 3142 3145
3109 3108 3107 3106 3105 3105 3104 3104 3103 3102 3103 3104 3104 3104 3106 3106 3102 3099 3099 3100 3101 3102 3104 3105 3105 3106 3107 3107 3107 3107 3107 3107 3107 3108 3108 3108 3109 3109 3109 3108 3108 3108 3106 3105 3105 3103 3103 3104 3107 3109 3109 3110 3112 3114 3115 3116 3118 3119 3120 3122 3121 3119 3119 3119 3117 3115 3112 3110 3114 3118 3117 3112 3110 3112 3115 3116 3118 3120 3122 3124 3127 3129 3132 3135 3136 3136 3140 3143
3108 3107 3106 3104 3104 3103 3103 3102 3102 3101 3102 3102 3103 3104 3106 3105 3100 3098 3100 3101 3101 3102 3103 3104 3105 3105 3105 3106 3106 3105 3106 3106 3106 3107 3107 3107 3108 3108 3108 3107 3106 3108 3108 3107 3105 3102 3100 3099 3100 3103 3105 3106 3109 3110 3112 3114 3115 3115 3117 3119 3118 3115 3114 3113 3110 3109 3108 3107 3109 3112 3111 3106 3106 3109 3111 3114 3117 3118 3120 3122 3124 3127 3129 3132 3134 3134 3138 3142
3106 3105 3104 3103 3102 3102 3101 3101 3101 3101 3101 3101 3103 3104 3104 3102 3099 3099 3100 3101 3102 3103 3103 3103 3104 3105 3105 3105 3104 3104 3106 3105 3105 3106 3106 3107 3106 3106 3107 3107 3105 3107 3109 3107 3105 3103 3101 3097 3098 3101 3103 3104 3106 3107 3111 3113 3112 3112 3115 3116 3113 3113 3114 3110 3106 3105 3105 3103 3103 3103 3103 3103 3105 3107 3109 3111 3113 3115 3118 3119 3121 3123 3126 3129 3132 3133 3136 3140
3104 3103 3102 3101 3101 3100 3100 3099 3099 3100 3100 3101 3102 3104 3103 3100 3100 3100 3100 3101 3102 3103 3104 3103 3102 3104 3103 3103 3104 3104 3104 3104 3104 3105 3104 3105 3105 3105 3105 3105 3105 3106 3108 3107 3105 3104 3102 3098 3099 3101 3102 3103 3104 3106 3109 3110 3108 3108 3109 3109 3110 3113 3115 3111 3107 3105 3103 3099 3096 3097 3098 3101 3104 3104 3105 3108 3110 3112 3115 3117 3119 3121 3124 3126 3128 3130 3133 3137
3102 3101 3100 3100 3100 3099 3099 3098 3098 3099 3099 3101 3102 3102 3102 3100 3100 3100 3100 3101 3102 3102 3103 3102 3101 3102 3102 3102 3103 3103 3103 3103 3103 3104 3103 3103 3104 3104 3105 3104 3104 3105 3106 3106 3107 3106 3103 3099 3098 3100 3101 3102 3104 3105 3106 3107 3107 3105 3103 3105 3110 3112 3112 3111 3107 3105 3102 3097 3095 3094 3093 3095 3099 3100 3101 3104 3107 3109 3111 3114 3117 3118 3121 3124 3125 3128 3130 3133
3101 3099 3099 3099 3099 3098 3098 3097 3098 3098 3099 3101 3102 3101 3101 3100 3099 3099 3100 3101 3102 3102 3103 3102 3101 3102 3103 3103 3102 3102 3103 3103 3103 3103 3103 3103 3102 3103 3105 3105 3104 3104 3104 3105 3107 3107 3105 3102 3098 3100 3101 3101 3103 3104 3103 3104 3105 3102 3101 3103 3106 3105 3106 3108 3106 3102 3100 3097 3095 3094 3092 3092 3094 3096 3099 3101 3103 3106 3108 3111 3113 3115 3118 3120 3123 3125 3127 3130
3099 3099 3100 3099 3098 3098 3097 3097 3097 3098 3099 3101 3102 3100 3100 3100 3099 3099 3100 3101 3102 3102 3102 3102 3101 3102 3103 3103 3102 3102 3103 3102 3103 3103 3102 3102 3102 3101 3103 3104 3104 3103 3103 3104 3106 3106 3107 3105 3099 3098 3100 3101 3101 3101 3100 3101 3102 3103 3101 3100 3101 3100 3100 3103 3103 3101 3099 3095 3093 3093 3091 3090 3091 3094 3097 3098 3099 3102 3105 3107 3109 3112 3114 3116 3119 3122 3124 3127
3099 3100 3101 3099 3098 3098 3097 3097 3097 3099 3100 3101 3100 3099 3099 3100 3100 3099 3099 3100 3101 3102 3102 3102 3102 3103 3102 3102 3102 3102 3103 3103 3103 3103 3103 3102 3102 3101 3102 3102 3102 3102 3102 3102 3104 3105 3106 3105 3100 3098 3099 3099 3097 3097 3097 3099 3100 3100 3099 3096 3097 3098 3098 3099 3098 3099 3098 3095 3092 3090 3087 3086 3089 3092 3094 3096 3098 3100 3102 3105 3107 3109 3111 3113 3116 3118 3121 3124
3100 3102 3101 3098 3098 3097 3096 3098 3099 3100 3101 3101 3100 3099 3099 3100 3100 3099 3099 3099 3100 3101 3101 3101 3102 3102 3102 3102 3102 3101 3102 3103 3103 3103 3102 3102 3102 3101 3100 3099 3099 3100 3101 3102 3104 3105 3104 3103 3100 3098 3097 3096 3095 3095 3097 3097 3097 3097 3096 3095 3096 3097 3097 3094 3091 3093 3096 3094 3092 3090 3086 3083 3084 3087 3091 3095 3097 3098 3100 3103 3105 3107 3109 3111 3113 3115 3118 3120
3101 3102 3099 3097 3098 3096 3096 3099 3101 3101 3101 3100 3099 3099 3098 3099 3100 3100 3099 3099 3100 3101 3101 3101 3102 3102 3102 3102 3102 3102 3102 3103 3102 3102 3101 3101 3102 3101 3097 3097 3098 3099 3101 3102 3103 3102 3101 3100 3098 3096 3095 3093 3092 3094 3095 3096 3096 3095 3093 3093 3094 3094 3093 3090 3087 3088 3091 3092 3093 3093 3089 3085 3084 3086 3091 3094 3096 3098 3099 3101 3103 3105 3107 3108 3111 3113 3115 3118
3101 3102 3099 3097 3096 3095 3096 3099 3101 3102 3100 3099 3099 3099 3098 3100 3101 3100 3100 3100 3100 3101 3101 3102 3102 3102 3102 3102 3102 3102 3102 3102 3101 3101 3101 3101 3101 3099 3096 3096 3097 3099 3101 3101 3101 3099 3098 3098 3098 3095 3093 3092 3091 3091 3092 3093 3094 3092 3089 3090 3091 3090 3090 3090 3088 3088 3088 3087 3090 3091 3090 3088 3086 3087 3091 3094 3096 3098 3099 3100 3102 3103 3105 3106 3108 3110 3112 3115
3099 3101 3100 3097 3095 3095 3097 3100 3102 3102 3101 3100 3101 3100 3098 3099 3100 3100 3101 3101 3100 3101 3102 3102 3102 3101 3101 3101 3101 3102 3101 3101 3100 3099 3100 3100 3099 3097 3096 3097 3097 3099 3101 3100 3098 3097 3096 3097 3097 3094 3092 3091 3090 3090 3089 3090 3091 3090 3089 3089 3089 3089 3090 3089 3089 3089 3085 3082 3085 3086 3086 3088 3087 3086 3090 3094 3096 3097 3098 3099 3100 3101 3103 3105 3106 3108 3110 3112
3099 3100 3101 3099 3097 3097 3098 3100 3102 3103 3101 3101 3101 3101 3100 3099 3098 3098 3099 3100 3100 3100 3101 3101 3100 3100 3100 3100 3100 3100 3100 3100 3099 3098 3098 3098 3098 3097 3096 3097 3097 3098 3100 3098 3095 3095 3096 3096 3095 3093 3090 3086 3084 3085 3086 3087 3088 3088 3088 3088 3089 3089 3088 3087 3087 3085 3082 3082 3085 3084 3082 3085 3087 3087 3090 3094 3096 3096 3097 3099 3099 3100 3101 3102 3102 3104 3108 3110
3100 3101 3101 3101 3100 3100 3100 3100 3102 3103 3102 3101 3101 3101 3101 3100 3098 3097 3097 3098 3098 3098 3099 3099 3099 3099 3099 3099 3099 3099 3099 3099 3098 3097 3097 3097 3096 3096 3095 3095 3096 3097 3097 3095 3094 3095 3095 3095 3093 3091 3089 3085 3082 3083 3086 3087 3087 3086 3086 3085 3086 3087 3087 3086 3083 3079 3080 3083 3084 3082 3082 3084 3086 3087 3090 3093 3095 3095 3096 3097 3097 3097 3098 3099 3099 3101 3104 3108
3100 3100 3100 3100 3100 3101 3101 3100 3101 3102 3102 3101 3101 3101 3100 3100 3099 3097 3096 3097 3097 3097 3097 3097 3097 3098 3098 3098 3098 3097 3097 3097 3096 3096 3095 3095 3094 3094 3093 3093 3093 3093 3093 3092 3093 3094 3093 3092 3090 3090 3088 3086 3084 3084 3086 3087 3087 3086 3084 3082 3082 3084 3085 3084 3080 3077 3080 3082 3080 3081 3084 3085 3085 3086 3088 3089 3091 3093 3094 3095 3095 3095 3096 3098 3100 3101 3104 3107
3100 3099 3098 3098 3099 3101 3100 3099 3100 3101 3101 3100 3100 3100 3100 3100 3099 3098 3097 3096 3096 3096 3096 3095 3096 3097 3097 3096 3095 3095 3095 3095 3095 3094 3093 3093 3092 3092 3091 3091 3091 3091 3090 3090 3091 3092 3091 3089 3088 3088 3086 3084 3084 3084 3084 3085 3084 3083 3082 3081 3080 3080 3081 3080 3077 3078 3081 3081 3079 3081 3084 3085 3085 3086 3085 3086 3088 3090 3091 3093 3094 3093 3094 3096 3098 3101 3104 3107
3099 3098 3097 3097 3098 3099 3098 3098 3099 3101 3100 3099 3099 3099 3099 3099 3099 3098 3097 3096 3096 3096 3095 3095 3096 3095 3094 3094 3093 3093 3094 3094 3093 3093 3092 3092 3091 3091 3090 3090 3089 3088 3088 3088 3088 3089 3089 3087 3086 3086 3084 3082 3083 3083 3082 3083 3082 3081 3080 3079 3078 3078 3079 3078 3077 3078 3080 3080 3081 3082 3083 3084 3085 3083 3084 3086 3086 3088 3090 3091 3091 3091 3092 3095 3097 3098 3100 3102
3098 3097 3097 3097 3098 3098 3098 3099 3100 3101 3100 3099 3099 3099 3098 3098 3098 3097 3096 3096 3096 3096 3095 3095 3095 3093 3092 3092 3092 3092 3092 3092 3092 3091 3091 3090 3090 3089 3088 3087 3086 3086 3085 3086 3086 3087 3086 3084 3084 3085 3082 3080 3080 3081 3081 3081 3079 3078 3077 3077 3077 3076 3077 3077 3077 3078 3079 3080 3081 3082 3082 3083 3082 3082 3085 3086 3085 3087 3090 3090 3088 3089 3091 3094 3096 3098 3099 3100
3098 3098 3097 3097 3097 3097 3098 3099 3099 3100 3100 3099 3098 3098 3097 3097 3097 3096 3095 3095 3094 3094 3094 3093 3092 3091 3091 3091 3091 3091 3091 3090 3089 3089 3089 3088 3087 3087 3086 3084 3084 3084 3083 3083 3084 3085 3084 3083 3083 3084 3081 3078 3078 3079 3078 3078 3077 3074 3073 3074 3075 3075 3075 3076 3077 3078 3079 3079 3080 3080 3080 3081 3080 3081 3085 3086 3086 3087 3088 3087 3086 3087 3090 3092 3095 3097 3099 3101
3099 3099 3098 3097 3098 3098 3099 3100 3100 3100 3100 3098 3097 3097 3097 3097 3096 3095 3095 3095 3093 3093 3093 3092 3091 3091 3090 3091 3090 3089 3088 3087 3086 3086 3086 3085 3084 3084 3083 3082 3082 3082 3081 3082 3082 3082 3082 3081 3081 3082 3079 3076 3076 3076 3075 3076 3073 3067 3066 3070 3072 3073 3074 3074 3075 3076 3077 3077 3077 3076 3078 3079 3077 3078 3082 3084 3084 3085 3085 3084 3084 3086 3088 3090 3092 3094 3096 3098